Location: Arthez
(43.0833°N, 0.2500°W)
Time: 22:00:13
(UTC+00:00)

Cosmos 2100 Rocket - Pass Details

Date: 23 October 2021
Orbit: 955 x 1001 km, 82.9° (Epoch: 06 December)

Event Time Altitude Azimuth Distance (km) Brightness Sun altitude
Rises 19:35:45 0° 187° (S) 3,674 7.0 -28.0°
Reaches altitude 10° 19:38:15 10° 188° (S) 2,736 6.3 -28.5°
Maximum altitude 19:44:33 84° 277° (W) 1,005 4.0 -29.6°
Drops below altitude 10° 19:50:58 10° 7° (N) 2,778 6.4 -30.8°
Sets 19:53:30 0° 8° (N) 3,734 7.1 -31.2°
